Saint Johns, AZ

9:04 PM MST on February 22, 2017 (GMT -0700)
Saint Johns Industrial

Weather History for KSJN - November, 2011

Change the Weather History Date:

Friday, November 25, 2011

  Actual Average (KLSB) Record (KLSB)
Temperature  
Mean Temperature 44 °F -  
Max Temperature 52 °F 62 °F 73 °F (2015)
Min Temperature 35 °F 27 °F 23 °F (2014)
Degree Days  
Heating Degree Days 22    
Moisture  
Dew Point 33 °F    
Average Humidity 66    
Maximum Humidity 96    
Minimum Humidity 41    
Precipitation  
Precipitation 0.06 in - - ()
Sea Level Pressure  
Sea Level Pressure 30.02 in    
Wind  
Wind Speed 10 mph (West)    
Max Wind Speed 17 mph    
Max Gust Speed 25 mph    
Visibility 10 miles    
Events Rain    
Averages and records for this station are not official NWS values.
T = Trace of Precipitation, MM = Missing Value Source: NWS Daily Summary

Daily Weather History Graph

Daily Weather History Graph

Search for Another Location

Airport or City:

Trip Planner

Search our weather history database for the weather conditions in past years. The results will help you decide how hot, cold, wet, or windy it might be!

Date:

Astronomy

Nov. 25, 2011 Rise Set
Actual Time 7:00 AM MST 5:08 PM MST
Civil Twilight 6:33 AM MST 5:35 PM MST
Nautical Twilight 6:02 AM MST 6:06 PM MST
Astronomical Twilight 5:32 AM MST 6:36 PM MST
Moon 7:29 AM MST (11/25) 5:41 PM MST (11/25)
Length of Visible Light 11h 02m
Length of Day
10h 08m
New Moon, 0% of the Moon is Illuminated
Nov 25
New Moon
Dec 2
First Quarter
Dec 10
Full
Dec 17
Last Quarter
Dec 24
New

Hourly Weather History & Observations

Time (MST) Temp. Windchill Dew Point Humidity Pressure Visibility Wind Dir Wind Speed Gust Speed Precip Events Conditions
12:54 AM 44.1 °F 40.1 °F 37.0 °F 76% 29.87 in 10.0 mi SW 6.9 mph - 0.00 in   Overcast
1:54 AM 43.0 °F 36.8 °F 36.0 °F 76% 29.87 in 10.0 mi NW 11.5 mph - N/A   Overcast
2:54 AM 39.2 °F 31.2 °F 37.4 °F 93% 30.02 in 8.0 mi NW 13.8 mph - N/A Rain Rain
3:45 AM 39.2 °F 34.2 °F 37.4 °F 93% 30.01 in 6.0 mi WNW 6.9 mph - 0.05 in Rain Rain
3:54 AM 39.0 °F 36.8 °F 37.9 °F 96% 29.86 in 8.0 mi West 3.5 mph - 0.06 in Rain Light Rain
4:18 AM 39.2 °F - 37.4 °F 93% 30.01 in 10.0 mi Calm Calm - 0.00 in Rain Light Rain
9:54 AM 46.0 °F 40.2 °F 37.9 °F 73% 29.96 in 10.0 mi West 12.7 mph - N/A   Mostly Cloudy
10:02 AM 44.6 °F 38.8 °F 37.4 °F 76% 30.07 in 10.0 mi West 11.5 mph - N/A   Mostly Cloudy
10:26 AM 46.4 °F 39.8 °F 37.4 °F 71% 30.07 in 10.0 mi West 16.1 mph 21.9 mph N/A   Mostly Cloudy
10:54 AM 46.9 °F - 37.0 °F 68% 29.97 in 10.0 mi WNW 16.1 mph 25.3 mph N/A   Scattered Clouds
11:17 AM 46.4 °F 40.4 °F 35.6 °F 66% 30.08 in 10.0 mi WNW 13.8 mph 19.6 mph N/A   Mostly Cloudy
11:34 AM 48.2 °F - 37.4 °F 66% 30.07 in 10.0 mi WNW 15.0 mph 20.7 mph N/A   Scattered Clouds
11:54 AM 48.9 °F - 37.0 °F 64% 29.94 in 10.0 mi WNW 15.0 mph - N/A   Partly Cloudy
12:54 PM 50.0 °F - 35.1 °F 57% 29.94 in 10.0 mi NW 10.4 mph - N/A   Partly Cloudy
1:54 PM 51.8 °F - 33.8 °F 50% 30.05 in 10.0 mi West 13.8 mph - N/A   Mostly Cloudy
2:54 PM 52.0 °F - 30.9 °F 45% 29.95 in 10.0 mi WNW 17.3 mph - N/A   Clear
3:54 PM 52.0 °F - 28.9 °F 41% 29.96 in 10.0 mi WNW 16.1 mph - N/A   Clear
4:54 PM 48.9 °F - 28.0 °F 44% 29.99 in 10.0 mi West 11.5 mph - N/A   Clear
5:54 PM 44.1 °F 40.1 °F 28.9 °F 55% 30.02 in 10.0 mi WSW 6.9 mph - N/A   Clear
6:54 PM 44.1 °F 37.7 °F 27.0 °F 51% 30.05 in 10.0 mi West 12.7 mph - N/A   Clear
7:54 PM 42.1 °F 35.2 °F 26.1 °F 53% 30.07 in 10.0 mi West 12.7 mph - N/A   Clear
8:54 PM 39.9 °F 34.5 °F 25.0 °F 55% 30.09 in 10.0 mi WSW 8.1 mph - N/A   Clear
9:54 PM 37.9 °F 33.5 °F 25.0 °F 60% 30.13 in 10.0 mi SSW 5.8 mph - N/A   Clear
10:54 PM 35.6 °F - 24.8 °F 65% 30.22 in 10.0 mi Calm Calm - N/A   Clear
11:54 PM 37.0 °F - 24.1 °F 59% 30.17 in 10.0 mi Calm Calm - N/A   Clear